Overview Statistics Trail Chart Weather Telemetry Raw packets
 

This is the latest recevied weather packets stored in our database for station/object N5DGC. If no packets are shown the sender has not sent any weather packets the latest 10 day(s).

<< 6 7 8 9 10 11 12 >>
Time Temp. Humidity Pressure Rain* Wind** Luminosity Snow
1788564057 30.56° C 32% 1237.5 hPa 0 mm - 162 W/m² -
1788563752 30.56° C 31% 1237.5 hPa 0 mm - 207 W/m² -
1788563447 31.11° C 31% 1237.6 hPa 0 mm - 364 W/m² -
1788563146 30.56° C 32% 1237.6 hPa 0 mm - 475 W/m² -
1788562842 30.56° C 32% 1237.4 hPa 0 mm - 267 W/m² -
1788562539 30.56° C 33% 1237.7 hPa 0 mm - 243 W/m² -
1788562239 30.56° C 33% 1237.6 hPa 0 mm - 239 W/m² -
1788561934 30° C 33% 1237.5 hPa 0 mm - 325 W/m² -
1788561634 30° C 34% 1237.6 hPa 0 mm - 200 W/m² -
1788561333 30.56° C 33% 1237.6 hPa 0 mm - 200 W/m² -
1788561029 31.11° C 32% 1237.4 hPa 0 mm - 223 W/m² -
1788560724 31.67° C 32% 1237.5 hPa 0 mm - 358 W/m² -
1788560420 32.22° C 31% 1237.6 hPa 0 mm - 460 W/m² -
1788560114 31.11° C 33% 1237.3 hPa 0 mm - 483 W/m² -
1788559809 31.11° C 33% 1237.5 hPa 0 mm - 356 W/m² -
1788559508 31.11° C 33% 1237.6 hPa 0 mm - 638 W/m² -
1788559204 30.56° C 34% 1237.9 hPa 0 mm - 483 W/m² -
1788558899 30° C 34% 1237.6 hPa 0 mm - 247 W/m² -
1788558594 30° C 34% 1237.6 hPa 0 mm - 195 W/m² -
1788558290 30° C 35% 1237.7 hPa 0 mm - 189 W/m² -
1788557985 30° C 35% 1238.1 hPa 0 mm - 202 W/m² -
1788557678 30.56° C 34% 1238 hPa 0 mm - 212 W/m² -
1788557375 31.11° C 34% 1237.9 hPa 0 mm - 246 W/m² -
1788557074 30.56° C 34% 1238 hPa 0 mm - 245 W/m² -
1788556769 30.56° C 34% 1238.1 hPa 0 mm - 225 W/m² -

* Rain latest hour (hover to see other rain measurements)
** Current wind speed in m/s (hover to see current wind gust speed)